Regional Weather Roundup
Issued by NWS

Home | Current Version | Previous Version | Text Only | Print | Product List | Glossary On
Versions: 1 2 3 4 5 6 7 8 9 10 11 12 13 14 15 16 17 18 19 20 21 22 23 24 25 26 27 28 29 30 31 32 33 34 35 36 37 38 39 40 41 42 43 44 45 46 47 48 49 50
199
ASUS44 KJAN 191210
RWRMS

MISSISSIPPI HOURLY WEATHER ROUNDUP
NATIONAL WEATHER SERVICE JACKSON MS
700 AM CDT SAT APR 19 2014

NOTE: "FAIR: INDICATES FEW OR NO CLOUDS BELOW 12,000 FEET WITH NO
SIGNIFICANT WEATHER AND/OR OBSTRUCTIONS TO VISIBILITY.

MSZ001>002-007>008-010>013-018>021-025>028-034>036-191300-
NORTHWEST MISSISSIPPI

CITY           SKY/WX    TMP DP  RH WIND       PRES   REMARKS
CLARKSDALE       N/A     50  50 100 CALM      30.21R
CLEVELAND      FAIR      51  51 100 NW5       30.20R FOG
GREENWOOD      CLEAR     50  49  96 CALM      30.18R FOG
6HR MIN TEMP:  47; 6HR MAX TEMP:  52;

GREENVILLE     CLEAR     52  50  93 NW3       30.20R FOG
6HR MIN TEMP:  50; 6HR MAX TEMP:  57;

GRENADA          N/A     45  45 100 CALM      30.19R
OLIVE BRANCH   PTCLDY    48  48 100 CALM      30.20R
OXFORD         FAIR      46  45  93 CALM      30.20R
TUNICA         SUNNY     50  48  93 NW5       30.22R
$$

MSZ003>006-009-014>017-022>024-029>033-037>039-191300-
NORTHEAST MISSISSIPPI

CITY           SKY/WX    TMP DP  RH WIND       PRES   REMARKS
BELMONT        FAIR      51  49  94 N3        30.17R
COLUMBUS AFB   CLEAR     46  46 100 VRB1      30.17R
6HR MIN TEMP:  46; 6HR MAX TEMP:  52;

CORINTH        FAIR      46  46 100 CALM      30.18R FOG
GOLDN TRIANGLE CLEAR     48  45  87 NW5       30.18S FOG
STARKVILLE     FAIR      45  45 100 CALM      30.16S FOG
TUPELO         CLEAR     48  46  93 NE3       30.18R
6HR MIN TEMP:  48; 6HR MAX TEMP:  53;

$$

MSZ040-058-191300-
CENTRAL MISSISSIPPI

CITY           SKY/WX    TMP DP  RH WIND       PRES   REMARKS
JACKSON INTL   FOG       47  47 100 CALM      30.17R VSB 1/4
6HR MIN TEMP:  47; 6HR MAX TEMP:  53;

JACKSON HAWKNS CLEAR     51  48  89 NW6       30.18R FOG
6HR MIN TEMP:  50; 6HR MAX TEMP:  57;

MERIDIAN KEY   CLEAR     48  47  96 CALM      30.15R
6HR MIN TEMP:  46; 6HR MAX TEMP:  53;

MERIDIAN NAS   CLEAR     49  47  93 W3        30.15R FOG
6HR MIN TEMP:  49; 6HR MAX TEMP:  55;

RAYMOND        HAZE      46  41  81 CALM      30.19R VSB 1/4
VICKSBURG      CLEAR     55  53  93 N3        30.19R
6HR MIN TEMP:  55; 6HR MAX TEMP:  59;

$$

MSZ059>079-191300-
SOUTH MISSISSIPPI

CITY           SKY/WX    TMP DP  RH WIND       PRES   REMARKS
BROOKHAVEN     FAIR      46  46 100 CALM      30.18R FOG
COLUMBIA       FAIR      50  50 100 MISG      30.15R FOG
HATTIESBURG    CLEAR     50  49  96 CALM      30.14R
6HR MIN TEMP:  50; 6HR MAX TEMP:  56;

MCCOMB         CLEAR     50  48  93 NW3       30.17R
6HR MIN TEMP:  50; 6HR MAX TEMP:  58;

NATCHEZ        CLEAR     48  46  93 CALM      30.17S
6HR MIN TEMP:  48; 6HR MAX TEMP:  59;

PINE BELT      CLEAR     52  46  82 N6        30.14R
6HR MIN TEMP:  50; 6HR MAX TEMP:  54;

$$

MSZ080>082-191300-
COASTAL MISSISSIPPI

CITY           SKY/WX    TMP DP  RH WIND       PRES   REMARKS
BILOXI         CLEAR     55  52  88 N9        30.11R
6HR MIN TEMP:  55; 6HR MAX TEMP:  58;

PASCAGOULA     CLEAR     54  52  93 N9        30.09R
6HR MIN TEMP:  53; 6HR MAX TEMP:  57; 6HR PCP:  0.01;

GULFPORT       CLEAR     56  51  84 N8        30.12R
6HR MIN TEMP:  56; 6HR MAX TEMP:  60;

$$



USA.gov is the U.S. government's official web portal to all federal, state and local government web resources and services.